"period end","wind dir","wind speed [m/s]","friction velocity [m/s]","avg(u) [m/s]","avg(v) [m/s]","avg(w) [m/s]","avg(Ts) [C]","<u'u'>","<v'v'>","<w'w'>","<Ts'Ts'>","w'Ts'","# data rec","# filt. data rec","buoyancy flux: B [W m-2]","momentum flux: FM [N m-2]","inverse Obukhov length: L-1 [m-1]","ustar2 [?]","phi","psi"
2014-09-01 00:00,277,8.037,0.392,0.957,7.862,0.485,4.069,1.343e+00,9.060e-01,3.224e-01,1.020e-02,9.630e-03,6000,0,1.217e+01,-1.935e-01,-2.257e-03,0.376,6.120e-02,
2014-09-01 00:10,272,8.261,0.480,0.281,8.156,0.568,4.150,1.004e+00,1.033e+00,3.093e-01,1.602e-02,2.989e-02,6000,0,3.775e+01,-2.895e-01,-3.825e-03,0.445,6.952e-02,
2014-09-01 00:20,281,7.970,0.638,1.472,7.716,0.597,4.338,9.333e-01,1.245e+00,4.641e-01,4.237e-02,7.905e-02,6000,0,9.977e+01,-5.107e-01,-4.311e-03,0.636,7.591e-02,
2014-09-01 00:30,277,8.095,0.586,0.905,7.910,0.664,4.554,1.221e+00,1.025e+00,4.275e-01,9.242e-02,1.122e-01,6000,0,1.415e+02,-4.303e-01,-7.894e-03,0.574,8.322e-02,
2014-09-01 00:40,273,8.847,0.538,0.522,8.744,0.511,4.450,7.930e-01,8.785e-01,4.296e-01,7.473e-02,8.090e-02,6001,0,1.020e+02,-3.639e-01,-7.325e-03,0.506,5.833e-02,
2014-09-01 00:50,274,8.611,0.532,0.600,8.472,0.576,4.465,1.332e+00,9.454e-01,3.460e-01,8.531e-02,9.138e-02,6000,0,1.153e+02,-3.558e-01,-8.556e-03,0.506,6.766e-02,
2014-09-01 01:00,279,8.440,0.473,1.253,8.221,0.490,4.446,1.538e+00,7.946e-01,2.991e-01,4.521e-02,5.019e-02,6000,0,6.332e+01,-2.806e-01,-6.714e-03,0.418,5.886e-02,
2014-09-01 01:10,283,7.846,0.550,1.688,7.564,0.639,4.699,7.121e-01,1.051e+00,3.807e-01,8.659e-02,1.116e-01,6000,0,1.406e+02,-3.792e-01,-9.476e-03,0.539,8.230e-02,
2014-09-01 01:20,279,8.226,0.422,1.234,8.054,0.403,4.484,8.086e-01,7.333e-01,2.912e-01,4.782e-02,5.208e-02,6000,0,6.569e+01,-2.232e-01,-9.812e-03,0.412,4.947e-02,
2014-09-01 01:30,277,7.157,0.480,0.823,7.023,0.501,4.646,6.394e-01,9.163e-01,3.207e-01,4.303e-02,5.671e-02,6000,0,7.149e+01,-2.894e-01,-7.229e-03,0.466,7.071e-02,
2014-09-01 01:40,270,6.688,0.295,0.025,6.576,0.469,4.801,9.897e-01,6.027e-01,2.604e-01,7.699e-02,5.282e-02,6001,0,6.655e+01,-1.089e-01,-2.911e-02,0.294,7.125e-02,
2014-09-01 01:50,276,6.540,0.437,0.659,6.424,0.503,4.897,4.843e-01,5.539e-01,3.127e-01,9.381e-02,1.050e-01,6000,0,1.322e+02,-2.391e-01,-1.778e-02,0.419,7.779e-02,
2014-09-01 02:00,281,6.325,0.430,1.237,6.098,0.419,5.042,8.619e-01,4.734e-01,2.573e-01,7.587e-02,7.965e-02,6000,0,1.003e+02,-2.311e-01,-1.418e-02,0.420,6.722e-02,
2014-09-01 02:10,278,5.844,0.480,0.829,5.647,0.407,5.194,1.155e+00,4.566e-01,3.019e-01,1.169e-01,1.209e-01,6000,0,1.521e+02,-2.880e-01,-1.544e-02,0.401,7.110e-02,
2014-09-01 02:20,283,4.920,0.341,1.049,4.703,0.182,5.393,8.686e-01,4.975e-01,1.872e-01,1.475e-01,9.044e-02,6000,0,1.137e+02,-1.451e-01,-3.226e-02,0.282,3.765e-02,
2014-09-01 02:30,291,5.910,0.224,2.093,5.472,0.179,5.457,3.844e-01,3.575e-01,1.578e-01,5.295e-02,4.776e-02,6000,0,6.003e+01,-6.282e-02,-5.975e-02,0.223,3.050e-02,
2014-09-01 02:40,284,5.574,0.337,1.378,5.339,0.292,5.578,3.572e-01,3.936e-01,2.101e-01,5.661e-02,6.910e-02,6001,0,8.682e+01,-1.416e-01,-2.552e-02,0.335,5.298e-02,
2014-09-01 02:50,283,4.809,0.280,1.057,4.635,0.228,5.674,3.023e-01,2.637e-01,1.724e-01,4.897e-02,5.518e-02,6000,0,6.930e+01,-9.766e-02,-3.555e-02,0.259,4.791e-02,
2014-09-01 03:00,280,4.402,0.388,0.734,4.258,0.171,5.940,3.997e-01,4.017e-01,2.355e-01,9.889e-02,1.016e-01,6000,0,1.274e+02,-1.881e-01,-2.442e-02,0.341,3.956e-02,
2014-09-01 03:10,294,3.809,0.217,1.518,3.348,0.145,6.139,6.691e-01,4.132e-01,2.769e-01,1.057e-01,1.317e-01,6000,0,1.651e+02,-5.857e-02,-1.819e-01,0.192,3.942e-02,
2014-09-01 03:20,293,2.969,,1.097,2.613,0.074,6.371,5.718e-01,9.273e-01,2.469e-01,1.032e-01,1.010e-01,6000,0,1.266e+02,,,,2.624e-02,
2014-09-01 03:30,264,2.552,0.303,-0.263,2.348,0.106,6.441,6.471e-01,7.631e-01,2.245e-01,7.509e-02,7.337e-02,6001,0,9.189e+01,-1.146e-01,-3.693e-02,0.166,4.499e-02,
2014-09-01 03:40,351,1.724,0.533,0.821,0.128,0.216,6.421,1.054e+00,1.404e+00,2.695e-01,2.352e-01,5.983e-02,6000,0,7.495e+01,-3.535e-01,-5.559e-03,0.512,2.546e-01,
2014-09-01 03:50,348,2.988,0.332,2.785,0.594,0.055,6.553,3.189e-01,5.853e-01,2.603e-01,2.137e-01,1.425e-01,6000,0,1.784e+02,-1.374e-01,-5.458e-02,0.289,1.916e-02,
2014-09-01 04:00,67,3.557,0.612,1.254,-2.999,0.279,5.867,5.398e-01,2.354e+00,2.794e-01,4.371e-01,2.230e-01,6000,0,2.799e+02,-4.681e-01,-1.367e-02,0.495,8.569e-02,
2014-09-01 04:10,88,3.867,0.190,0.148,-3.833,-0.077,5.273,1.435e-01,3.555e-01,9.154e-02,3.043e-02,2.005e-02,6000,0,2.522e+01,-4.517e-02,-4.121e-02,0.166,-2.001e-02,
2014-09-01 04:20,80,3.315,0.191,0.576,-3.224,-0.037,5.372,1.596e-01,1.281e-01,1.067e-01,7.296e-02,5.424e-02,6000,0,6.820e+01,-4.582e-02,-1.090e-01,0.190,-1.132e-02,
2014-09-01 04:30,65,3.541,0.232,1.474,-3.145,0.000,5.817,2.223e-01,2.185e-01,1.949e-01,1.901e-01,8.767e-02,6001,0,1.100e+02,-6.695e-02,-9.937e-02,0.223,8.155e-05,
2014-09-01 04:40,73,3.560,0.176,1.020,-3.297,-0.007,5.804,5.025e-01,2.386e-01,1.613e-01,1.586e-01,4.936e-02,5999,0,6.197e+01,-3.878e-02,-1.269e-01,0.111,-2.043e-03,
2014-09-01 04:50,89,3.587,0.274,0.057,-3.544,-0.019,5.456,1.365e-01,1.558e-01,1.579e-01,1.302e-01,9.613e-02,6001,0,1.208e+02,-9.360e-02,-6.613e-02,0.268,-5.345e-03,
2014-09-01 05:00,81,3.212,0.175,0.472,-3.153,-0.084,5.349,6.350e-02,1.221e-01,7.299e-02,2.621e-02,2.377e-02,6000,0,2.989e+01,-3.854e-02,-6.195e-02,0.173,-2.634e-02,
2014-09-01 05:10,81,3.110,0.206,0.466,-3.048,-0.037,5.510,6.956e-02,1.127e-01,9.220e-02,3.021e-02,3.101e-02,6000,0,3.897e+01,-5.288e-02,-5.021e-02,0.206,-1.193e-02,
2014-09-01 05:20,74,3.231,0.155,0.880,-3.091,-0.037,5.614,5.281e-02,6.735e-02,5.603e-02,3.479e-02,2.436e-02,6000,0,3.060e+01,-2.997e-02,-9.235e-02,0.153,-1.136e-02,
2014-09-01 05:30,76,3.272,0.140,0.801,-3.158,-0.025,5.517,4.706e-02,5.395e-02,4.278e-02,1.663e-02,1.550e-02,6000,0,1.948e+01,-2.462e-02,-7.897e-02,0.114,-7.608e-03,
2014-09-01 05:40,70,3.113,0.088,1.043,-2.901,0.038,5.909,7.718e-02,1.107e-01,9.938e-02,8.336e-02,5.002e-02,6000,0,6.277e+01,-9.577e-03,-1.047e+00,0.088,1.233e-02,
2014-09-01 05:50,61,3.449,0.179,1.634,-2.960,-0.126,5.972,1.469e-01,2.066e-01,2.562e-01,1.451e-01,1.060e-01,6001,0,1.330e+02,-4.000e-02,-2.598e-01,0.172,-3.736e-02,
2014-09-01 06:00,44,3.444,0.214,2.393,-2.348,0.056,6.205,2.509e-01,2.407e-01,2.500e-01,1.430e-01,1.112e-01,6000,0,1.394e+02,-5.694e-02,-1.602e-01,0.199,1.661e-02,
2014-09-01 06:10,37,3.553,0.216,2.766,-2.065,-0.137,6.173,1.848e-01,4.511e-01,2.206e-01,1.056e-01,9.519e-02,6000,0,1.193e+02,-5.810e-02,-1.330e-01,0.191,-3.974e-02,
2014-09-01 06:20,74,4.938,0.269,1.333,-4.721,-0.009,5.730,1.549e-01,3.044e-01,1.298e-01,1.354e-01,6.564e-02,6000,0,8.242e+01,-9.013e-02,-4.767e-02,0.269,-1.805e-03,
2014-09-01 06:30,71,3.866,0.211,1.248,-3.619,0.004,5.894,1.625e-01,1.732e-01,1.231e-01,4.774e-02,3.937e-02,6000,0,4.940e+01,-5.575e-02,-5.868e-02,0.209,1.029e-03,
2014-09-01 06:40,70,4.480,0.239,1.533,-4.147,-0.011,5.813,1.958e-01,8.617e-01,1.197e-01,4.700e-02,3.903e-02,6001,0,4.899e+01,-7.127e-02,-4.028e-02,0.238,-2.526e-03,
2014-09-01 06:50,80,4.819,0.122,0.808,-4.736,0.001,5.879,1.342e-01,2.574e-01,2.985e-02,2.144e-02,2.010e-03,6000,0,2.523e+00,-1.870e-02,-1.543e-02,0.109,2.640e-04,
2014-09-01 07:00,83,3.950,0.275,0.506,-3.853,-0.013,5.928,3.344e-01,3.469e-01,1.448e-01,2.373e-02,6.779e-03,6000,0,8.506e+00,-9.425e-02,-4.596e-03,0.124,-3.306e-03,
2014-09-01 07:10,84,3.755,0.230,0.383,-3.698,0.052,6.252,1.826e-01,1.632e-01,8.928e-02,9.438e-02,2.816e-02,6000,0,3.529e+01,-6.592e-02,-3.254e-02,0.203,1.387e-02,
2014-09-01 07:20,78,4.206,0.220,0.841,-4.034,-0.001,6.138,5.197e-01,3.836e-01,1.098e-01,6.408e-02,2.439e-02,6000,0,3.059e+01,-6.022e-02,-3.232e-02,0.127,-3.559e-04,
2014-09-01 07:30,107,5.173,0.383,-1.449,-4.872,0.119,6.208,9.599e-01,4.746e-01,1.142e-01,3.174e-02,1.805e-02,6000,0,2.263e+01,-1.826e-01,-4.528e-03,0.342,2.340e-02,
2014-09-01 07:40,109,5.689,0.219,-1.850,-5.338,0.040,6.105,3.070e-01,3.805e-01,9.349e-02,2.542e-02,9.948e-03,6001,0,1.248e+01,-6.007e-02,-1.323e-02,0.218,7.136e-03,
2014-09-01 07:50,109,5.800,0.268,-1.840,-5.472,0.026,5.998,1.986e-01,3.932e-01,1.171e-01,2.460e-02,1.327e-02,6000,0,1.665e+01,-8.968e-02,-9.690e-03,0.266,4.438e-03,
2014-09-01 08:00,113,5.497,0.261,-2.146,-5.019,0.074,6.000,3.569e-01,3.357e-01,1.201e-01,2.330e-02,1.885e-02,6000,0,2.365e+01,-8.515e-02,-1.487e-02,0.261,1.362e-02,
2014-09-01 08:10,113,5.583,0.288,-2.194,-5.095,0.080,6.053,3.720e-01,4.867e-01,9.893e-02,2.068e-02,1.659e-02,6000,0,2.081e+01,-1.038e-01,-9.719e-03,0.285,1.446e-02,
2014-09-01 08:20,117,6.223,0.225,-2.783,-5.532,0.014,5.951,3.395e-01,3.361e-01,1.265e-01,2.227e-02,1.184e-02,6000,0,1.485e+01,-6.305e-02,-1.467e-02,0.218,2.311e-03,
2014-09-01 08:30,114,5.674,0.253,-2.290,-5.155,0.082,5.897,3.340e-01,4.382e-01,1.358e-01,1.133e-02,1.218e-02,6000,0,1.528e+01,-7.993e-02,-1.057e-02,0.246,1.452e-02,
2014-09-01 08:40,113,6.815,0.218,-2.705,-6.227,0.076,5.732,2.569e-01,2.276e-01,1.055e-01,1.807e-02,-2.215e-03,6001,0,-2.781e+00,-5.936e-02,3.009e-03,0.209,1.121e-02,
2014-09-01 08:50,121,6.284,0.229,-3.258,-5.324,0.125,5.714,4.211e-01,3.705e-01,1.183e-01,1.489e-02,-7.966e-03,6000,0,-1.000e+01,-6.526e-02,9.390e-03,0.225,2.008e-02,
2014-09-01 09:00,123,6.435,0.277,-3.469,-5.382,0.167,5.760,3.786e-01,3.904e-01,1.356e-01,1.251e-02,-1.100e-03,6000,0,-1.381e+00,-9.560e-02,7.308e-04,0.266,2.609e-02,
2014-09-01 09:10,124,6.398,0.212,-3.599,-5.253,0.169,5.707,3.392e-01,4.292e-01,1.281e-01,1.067e-02,-4.774e-03,6000,0,-5.995e+00,-5.595e-02,7.090e-03,0.201,2.647e-02,
2014-09-01 09:20,126,5.734,0.264,-3.332,-4.616,0.141,5.795,3.729e-01,2.829e-01,1.312e-01,6.338e-03,-7.797e-03,6000,0,-9.788e+00,-8.678e-02,5.990e-03,0.252,2.468e-02,
2014-09-01 09:30,120,5.127,0.196,-2.547,-4.424,0.100,5.799,2.034e-01,2.922e-01,6.635e-02,6.285e-03,-4.324e-03,6000,0,-5.429e+00,-4.796e-02,8.086e-03,0.190,1.958e-02,
2014-09-01 09:40,128,4.977,0.269,-3.006,-3.909,0.132,5.865,3.441e-01,3.339e-01,1.188e-01,7.510e-03,-3.293e-03,6001,0,-4.133e+00,-9.035e-02,2.380e-03,0.269,2.686e-02,
2014-09-01 09:50,131,4.995,0.205,-3.263,-3.720,0.183,5.939,3.971e-01,5.481e-01,1.226e-01,1.061e-02,-1.113e-02,6000,0,-1.397e+01,-5.241e-02,1.820e-02,0.189,3.695e-02,
2014-09-01 10:00,128,4.621,0.220,-2.848,-3.593,0.145,5.905,1.900e-01,3.963e-01,8.623e-02,1.301e-02,-1.191e-02,6000,0,-1.495e+01,-6.035e-02,1.577e-02,0.220,3.172e-02,
2014-09-01 10:10,128,4.449,0.179,-2.746,-3.464,0.149,5.883,1.690e-01,1.752e-01,8.601e-02,1.703e-02,-1.175e-02,6000,0,-1.474e+01,-3.991e-02,2.892e-02,0.173,3.363e-02,
2014-09-01 10:20,130,4.719,0.242,-2.991,-3.608,0.148,5.897,2.672e-01,2.974e-01,1.116e-01,1.650e-02,-1.549e-02,6000,0,-1.945e+01,-7.322e-02,1.535e-02,0.238,3.162e-02,
2014-09-01 10:30,125,5.330,0.278,-3.020,-4.355,0.114,5.990,3.295e-01,5.157e-01,9.452e-02,1.546e-02,-1.431e-02,6001,0,-1.795e+01,-9.622e-02,9.401e-03,0.273,2.151e-02,
2014-09-01 10:40,118,4.221,0.164,-1.943,-3.710,0.051,5.925,2.703e-01,1.902e-01,6.827e-02,1.286e-02,-9.311e-03,6000,0,-1.168e+01,-3.343e-02,2.989e-02,0.113,1.209e-02,
2014-09-01 10:50,124,3.779,0.186,-2.057,-3.072,0.096,5.825,6.073e-01,3.367e-01,9.373e-02,1.905e-02,-1.084e-02,6000,0,-1.361e+01,-4.304e-02,2.384e-02,0.186,2.597e-02,
2014-09-01 11:00,154,2.261,0.191,-1.844,-0.918,0.103,5.888,5.428e-01,1.561e+00,4.547e-02,1.245e-02,-6.836e-03,6000,0,-8.580e+00,-4.557e-02,1.379e-02,0.188,4.985e-02,
2014-09-01 11:10,133,3.725,0.168,-2.500,-2.644,0.132,6.055,4.148e-01,1.132e+00,1.234e-01,1.188e-02,-6.793e-03,6000,0,-8.520e+00,-3.543e-02,1.996e-02,0.112,3.629e-02,
2014-09-01 11:20,132,4.438,0.218,-2.918,-3.283,0.167,6.111,3.637e-01,2.847e-01,1.222e-01,8.268e-03,-1.126e-02,6000,0,-1.411e+01,-5.950e-02,1.519e-02,0.214,3.808e-02,
2014-09-01 11:30,136,3.149,0.191,-2.243,-2.131,0.096,6.166,3.770e-01,3.660e-01,8.168e-02,8.012e-03,-7.137e-03,6001,0,-8.949e+00,-4.530e-02,1.449e-02,0.150,3.088e-02,
2014-09-01 11:40,136,3.457,0.371,-2.403,-2.332,0.194,6.127,6.521e-01,1.191e+00,1.298e-01,1.313e-02,-1.070e-02,6000,0,-1.342e+01,-1.715e-01,2.949e-03,0.367,5.797e-02,
2014-09-01 11:50,133,5.460,0.285,-3.644,-3.976,0.205,6.101,5.100e-01,5.842e-01,1.756e-01,2.295e-02,-2.027e-02,6000,0,-2.543e+01,-1.010e-01,1.237e-02,0.284,3.807e-02,
2014-09-01 12:00,151,4.672,0.184,-4.035,-2.268,0.216,5.719,3.380e-01,3.933e-01,1.108e-01,3.867e-02,-1.427e-02,6000,0,-1.792e+01,-4.246e-02,3.205e-02,0.179,4.671e-02,
2014-09-01 12:10,136,5.724,0.247,-4.060,-3.934,0.290,5.854,3.577e-01,6.503e-01,1.704e-01,2.948e-02,-2.335e-02,6000,0,-2.931e+01,-7.649e-02,2.167e-02,0.246,5.120e-02,
2014-09-01 12:20,129,5.725,0.299,-3.549,-4.429,0.219,5.736,3.065e-01,5.758e-01,1.424e-01,2.345e-02,-2.018e-02,6000,0,-2.534e+01,-1.115e-01,1.066e-02,0.297,3.848e-02,
2014-09-01 12:30,123,5.556,0.230,-3.026,-4.610,0.188,5.595,2.796e-01,4.121e-01,1.127e-01,2.335e-02,-1.931e-02,6001,0,-2.426e+01,-6.603e-02,2.240e-02,0.224,3.406e-02,
2014-09-01 12:40,129,5.283,0.227,-3.280,-4.090,0.208,5.643,2.479e-01,2.689e-01,1.226e-01,1.245e-02,-1.290e-02,6000,0,-1.620e+01,-6.460e-02,1.545e-02,0.227,3.958e-02,
2014-09-01 12:50,120,6.347,0.256,-3.147,-5.470,0.193,5.651,3.331e-01,3.188e-01,1.249e-01,2.006e-02,-1.212e-02,6000,0,-1.522e+01,-8.178e-02,1.019e-02,0.251,3.054e-02,
2014-09-01 13:00,117,6.324,0.215,-2.872,-5.604,0.119,5.616,2.440e-01,2.963e-01,9.955e-02,2.188e-02,-1.234e-02,6000,0,-1.551e+01,-5.751e-02,1.761e-02,0.208,1.897e-02,
2014-09-01 13:10,118,6.742,0.262,-3.166,-5.921,0.184,5.683,2.747e-01,4.159e-01,1.174e-01,2.129e-02,-1.476e-02,6000,0,-1.854e+01,-8.576e-02,1.155e-02,0.262,2.735e-02,
2014-09-01 13:20,118,6.336,0.266,-2.996,-5.550,0.164,5.677,2.545e-01,2.915e-01,1.183e-01,1.657e-02,-1.325e-02,6001,0,-1.664e+01,-8.829e-02,9.931e-03,0.265,2.598e-02,
2014-09-01 13:30,121,6.026,0.263,-3.044,-5.162,0.219,5.658,2.451e-01,3.931e-01,1.214e-01,1.567e-02,-1.408e-02,6000,0,-1.768e+01,-8.650e-02,1.088e-02,0.263,3.644e-02,
2014-09-01 13:40,116,6.145,0.267,-2.639,-5.512,0.177,5.722,2.650e-01,4.137e-01,1.198e-01,2.067e-02,-1.479e-02,6000,0,-1.858e+01,-8.900e-02,1.095e-02,0.265,2.895e-02,
2014-09-01 13:50,121,4.886,0.348,-2.498,-4.077,0.181,5.595,2.063e-01,1.912e+00,1.086e-01,1.544e-02,-1.467e-02,6000,0,-1.843e+01,-1.517e-01,4.884e-03,0.331,3.777e-02,
2014-09-01 14:00,154,1.867,0.552,-1.054,-0.522,0.182,5.696,1.503e+00,1.513e+00,1.481e-01,9.659e-03,-4.677e-04,6000,0,-5.874e-01,-3.808e-01,3.913e-05,0.530,1.538e-01,
2014-09-01 14:10,127,1.208,0.383,-0.201,-0.271,0.222,5.790,1.213e+00,4.091e-01,2.232e-01,6.395e-03,-8.764e-03,6000,0,-1.100e+01,-1.834e-01,2.191e-03,0.376,5.815e-01,
2014-09-01 14:20,85,1.132,,0.029,-0.305,-0.036,6.087,3.183e-01,9.399e-01,1.970e-01,4.780e-02,-9.248e-03,6001,0,-1.160e+01,,,,-1.155e-01,
2014-09-01 14:30,276,0.636,0.223,0.032,0.299,0.044,6.116,8.367e-02,3.979e-01,4.895e-02,1.061e-02,-3.160e-03,6000,0,-3.963e+00,-6.230e-02,3.980e-03,0.221,1.462e-01,
2014-09-01 14:40,128,1.390,,-0.753,-0.970,0.073,6.167,4.424e-01,2.947e-01,8.167e-02,1.277e-02,-7.848e-03,6000,0,-9.839e+00,,,,5.975e-02,
2014-09-01 14:50,131,5.258,0.163,-3.425,-3.909,0.184,6.270,6.489e-01,8.285e-01,2.383e-01,1.186e-02,-1.492e-02,6000,0,-1.870e+01,-3.327e-02,4.808e-02,0.158,3.541e-02,
2014-09-01 15:00,130,5.453,0.367,-3.437,-4.144,0.229,6.095,3.498e-01,8.794e-01,2.127e-01,1.446e-02,-8.628e-03,6000,0,-1.082e+01,-1.683e-01,2.447e-03,0.355,4.249e-02,
2014-09-01 15:10,118,6.521,0.297,-3.033,-5.728,0.168,5.942,3.709e-01,5.664e-01,1.401e-01,2.036e-02,-1.481e-02,6000,0,-1.859e+01,-1.102e-01,7.944e-03,0.296,2.590e-02,
2014-09-01 15:20,116,6.712,0.245,-2.957,-5.991,0.193,5.976,2.857e-01,4.754e-01,1.174e-01,2.364e-02,-1.440e-02,6001,0,-1.806e+01,-7.481e-02,1.380e-02,0.234,2.895e-02,
2014-09-01 15:30,115,6.996,0.209,-2.937,-6.324,0.126,6.049,3.266e-01,5.881e-01,8.746e-02,2.888e-02,-1.442e-02,6000,0,-1.808e+01,-5.449e-02,2.221e-02,0.195,1.813e-02,
2014-09-01 15:40,120,5.684,0.252,-2.827,-4.865,0.142,6.262,6.024e-01,5.243e-01,1.375e-01,3.257e-02,-1.571e-02,6000,0,-1.970e+01,-7.897e-02,1.385e-02,0.250,2.527e-02,
2014-09-01 15:50,114,6.282,0.230,-2.519,-5.717,0.138,6.081,3.117e-01,3.382e-01,1.075e-01,3.187e-02,-1.296e-02,6000,0,-1.625e+01,-6.585e-02,1.502e-02,0.217,2.206e-02,
2014-09-01 16:00,115,8.105,0.289,-3.474,-7.287,0.149,5.967,4.278e-01,4.531e-01,1.659e-01,2.297e-02,-1.877e-02,6000,0,-2.354e+01,-1.046e-01,1.088e-02,0.288,1.843e-02,
2014-09-01 16:10,116,8.220,0.321,-3.631,-7.334,0.219,5.901,4.018e-01,5.588e-01,1.857e-01,2.481e-02,-1.830e-02,6000,0,-2.297e+01,-1.287e-01,7.777e-03,0.319,2.677e-02,
2014-09-01 16:20,114,9.836,0.365,-3.954,-8.967,0.164,5.900,4.439e-01,1.172e+00,2.081e-01,2.798e-02,-2.381e-02,6001,0,-2.988e+01,-1.665e-01,6.879e-03,0.362,1.670e-02,
2014-09-01 16:30,110,10.397,0.328,-3.592,-9.723,0.145,5.922,5.228e-01,6.057e-01,1.952e-01,3.206e-02,-2.456e-02,6000,0,-3.081e+01,-1.341e-01,9.809e-03,0.316,1.397e-02,
2014-09-01 16:40,108,9.344,0.283,-2.884,-8.864,0.123,5.881,3.549e-01,6.223e-01,1.384e-01,2.580e-02,-1.783e-02,6000,0,-2.237e+01,-9.973e-02,1.111e-02,0.268,1.315e-02,
2014-09-01 16:50,107,8.872,0.309,-2.643,-8.440,0.098,5.787,3.577e-01,5.138e-01,1.609e-01,2.133e-02,-1.647e-02,6000,0,-2.068e+01,-1.196e-01,7.818e-03,0.303,1.109e-02,
2014-09-01 17:00,109,9.344,0.281,-2.972,-8.828,0.106,5.737,3.766e-01,4.388e-01,1.830e-01,2.259e-02,-1.819e-02,6000,0,-2.284e+01,-9.833e-02,1.159e-02,0.274,1.143e-02,
2014-09-01 17:10,109,9.021,0.324,-2.909,-8.510,0.101,5.731,3.270e-01,6.294e-01,1.652e-01,2.186e-02,-1.775e-02,6001,0,-2.229e+01,-1.310e-01,7.362e-03,0.321,1.123e-02,
2014-09-01 17:20,111,8.297,0.310,-2.910,-7.738,0.146,5.760,3.291e-01,4.274e-01,1.742e-01,2.147e-02,-1.986e-02,6000,0,-2.493e+01,-1.199e-01,9.392e-03,0.305,1.769e-02,
2014-09-01 17:30,110,7.916,0.312,-2.665,-7.422,0.133,5.828,3.327e-01,5.166e-01,1.507e-01,2.497e-02,-2.029e-02,6000,0,-2.546e+01,-1.213e-01,9.430e-03,0.311,1.689e-02,
2014-09-01 17:40,115,7.535,0.310,-3.194,-6.772,0.173,5.901,4.178e-01,7.169e-01,1.667e-01,2.477e-02,-1.830e-02,6000,0,-2.297e+01,-1.202e-01,8.611e-03,0.310,2.311e-02,
2014-09-01 17:50,119,6.490,0.289,-3.166,-5.624,0.191,5.913,3.248e-01,4.564e-01,1.553e-01,2.563e-02,-2.107e-02,6000,0,-2.644e+01,-1.045e-01,1.223e-02,0.289,2.961e-02,
2014-09-01 18:00,115,6.981,0.274,-2.884,-6.317,0.153,5.936,3.700e-01,4.760e-01,1.454e-01,2.847e-02,-2.128e-02,6000,0,-2.671e+01,-9.363e-02,1.457e-02,0.271,2.206e-02,
2014-09-01 18:10,111,7.603,0.302,-2.722,-7.063,0.166,6.028,3.512e-01,5.130e-01,1.601e-01,3.041e-02,-2.022e-02,6001,0,-2.536e+01,-1.140e-01,1.029e-02,0.301,2.195e-02,
2014-09-01 18:20,118,8.561,0.316,-4.007,-7.520,0.216,6.215,4.703e-01,6.197e-01,1.794e-01,2.572e-02,-2.129e-02,6000,0,-2.669e+01,-1.243e-01,9.504e-03,0.312,2.533e-02,
2014-09-01 18:30,144,5.541,,-4.249,-3.093,0.218,6.232,6.214e-01,4.744e+00,2.330e-01,2.043e-02,-1.437e-02,6000,0,-1.802e+01,,,,4.141e-02,
2014-09-01 18:40,163,2.695,0.186,-2.434,-0.763,0.075,6.261,4.370e-01,6.301e-01,2.422e-01,7.877e-03,-7.493e-03,6000,0,-9.391e+00,-4.319e-02,1.633e-02,0.177,2.954e-02,
2014-09-01 18:50,165,3.273,0.238,-2.991,-0.786,0.130,6.111,6.747e-01,1.112e+00,2.539e-01,1.747e-02,-8.345e-03,6000,0,-1.046e+01,-7.069e-02,8.695e-03,0.041,4.192e-02,
2014-09-01 19:00,187,3.750,,-3.674,0.429,0.088,6.242,7.456e-01,3.140e-01,9.031e-02,4.572e-02,-1.452e-02,6000,0,-1.820e+01,,,,2.376e-02,
2014-09-01 19:10,171,5.024,,-4.791,-0.746,0.054,6.505,7.340e-01,1.525e+00,2.524e-01,8.448e-03,-1.645e-02,6001,0,-2.060e+01,,,,1.107e-02,
2014-09-01 19:20,162,4.583,0.385,-4.077,-1.316,0.124,6.339,1.928e+00,3.056e+00,2.058e-01,4.953e-02,-2.482e-02,6000,0,-3.109e+01,-1.848e-01,6.107e-03,0.271,2.904e-02,
2014-09-01 19:30,145,2.775,,-2.107,-1.481,0.065,6.055,6.659e-01,7.268e-01,2.104e-01,2.938e-02,-1.116e-02,6000,0,-1.399e+01,,,,2.527e-02,
2014-09-01 19:40,137,2.024,0.236,-1.410,-1.310,0.047,5.703,2.964e-01,2.503e-01,9.302e-02,9.677e-03,-7.595e-03,6000,0,-9.538e+00,-6.967e-02,8.118e-03,0.168,2.454e-02,
2014-09-01 19:50,127,2.322,0.175,-1.364,-1.793,0.029,5.680,2.026e-01,1.471e-01,9.094e-02,1.048e-02,-7.663e-03,6000,0,-9.624e+00,-3.806e-02,2.029e-02,0.131,1.283e-02,
2014-09-01 20:00,133,2.344,0.137,-1.543,-1.652,0.044,5.832,1.726e-01,3.610e-01,7.143e-02,2.169e-02,-6.851e-03,6001,0,-8.599e+00,-2.328e-02,3.785e-02,0.137,1.938e-02,
2014-09-01 20:10,133,1.575,0.139,-1.024,-1.080,-0.065,5.722,1.153e-01,1.966e-01,4.475e-02,8.940e-03,-7.098e-03,6000,0,-8.914e+00,-2.427e-02,3.689e-02,0.034,-4.348e-02,
2014-09-01 20:20,155,1.121,0.141,-0.932,-0.443,-0.021,5.748,8.490e-02,1.755e-01,2.623e-02,6.992e-03,-2.104e-03,6000,0,-2.642e+00,-2.485e-02,1.056e-02,0.118,-2.066e-02,
2014-09-01 20:30,112,0.627,0.097,-0.189,-0.479,-0.021,5.718,9.009e-02,4.455e-02,1.976e-02,6.388e-03,5.510e-05,6000,0,6.919e-02,-1.167e-02,-8.591e-04,0.064,-4.014e-02,
2014-09-01 20:40,112,0.971,0.095,-0.328,-0.831,0.015,5.768,1.064e-01,9.827e-02,4.148e-02,1.579e-02,-2.672e-03,6000,0,-3.355e+00,-1.123e-02,4.410e-02,0.054,1.696e-02,
2014-09-01 20:50,128,0.917,,-0.531,-0.675,-0.007,5.845,1.307e-01,9.120e-02,1.983e-02,5.186e-03,8.575e-05,6000,0,1.076e-01,,,,-8.611e-03,
2014-09-01 21:00,5,0.817,,0.638,-0.061,-0.007,5.778,2.154e-01,1.475e-01,2.340e-02,3.642e-03,-2.478e-03,6001,0,-3.111e+00,,,,-1.154e-02,
2014-09-01 21:10,59,1.353,,0.648,-1.078,0.056,5.976,2.193e-01,1.147e-01,7.282e-02,2.357e-03,-2.490e-03,6000,0,-3.124e+00,,,,4.469e-02,
2014-09-01 21:20,98,1.125,0.208,-0.140,-0.969,-0.031,6.045,2.873e-01,5.638e-01,5.465e-02,1.341e-02,-7.968e-03,6000,0,-9.994e+00,-5.401e-02,1.244e-02,0.198,-3.216e-02,
2014-09-01 21:30,127,3.071,0.266,-1.761,-2.367,-0.053,6.160,5.166e-01,5.467e-01,2.009e-01,1.044e-02,-1.096e-02,6000,0,-1.374e+01,-8.835e-02,8.166e-03,0.243,-1.807e-02,
2014-09-01 21:40,127,4.543,0.273,-2.721,-3.584,0.102,6.456,7.713e-01,1.304e+00,1.023e-01,2.395e-02,-1.318e-02,6000,0,-1.650e+01,-9.308e-02,9.059e-03,0.273,2.259e-02,
2014-09-01 21:50,141,6.973,0.347,-5.351,-4.320,0.268,6.734,1.032e+00,9.119e-01,2.338e-01,1.687e-02,-1.052e-02,6000,0,-1.316e+01,-1.503e-01,3.515e-03,0.306,3.889e-02,
2014-09-01 22:00,156,5.614,0.396,-4.844,-2.196,0.175,6.701,2.586e+00,4.113e+00,2.551e-01,1.748e-02,-1.800e-02,6001,0,-2.252e+01,-1.952e-01,4.066e-03,0.353,3.296e-02,
2014-09-01 22:10,165,3.101,0.346,-2.588,-0.710,0.240,6.642,9.950e-01,1.954e+00,2.080e-01,2.168e-02,-2.461e-02,6000,0,-3.081e+01,-1.489e-01,8.350e-03,0.256,8.917e-02,
2014-09-01 22:20,157,2.613,0.345,-2.088,-0.866,0.089,6.782,5.489e-01,2.017e+00,1.583e-01,1.437e-02,-6.141e-03,6000,0,-7.683e+00,-1.480e-01,2.099e-03,0.344,3.935e-02,
2014-09-01 22:30,163,4.479,0.247,-4.081,-1.244,0.033,6.971,2.395e+00,2.280e+00,2.501e-01,8.208e-02,-1.972e-02,6000,0,-2.465e+01,-7.562e-02,1.843e-02,0.230,7.773e-03,
2014-09-01 22:40,156,5.573,0.545,-4.763,-2.151,0.180,6.961,5.224e+00,5.907e+00,5.055e-01,3.584e-02,-3.038e-02,6000,0,-3.799e+01,-3.692e-01,2.632e-03,0.498,3.449e-02,
2014-09-01 22:50,153,6.590,0.409,-5.698,-2.963,0.149,6.930,1.361e+00,1.639e+00,3.458e-01,1.844e-02,-1.190e-02,6000,0,-1.487e+01,-2.081e-01,2.435e-03,0.328,2.322e-02,
2014-09-01 23:00,154,6.114,0.269,-5.368,-2.673,0.226,6.804,8.465e-01,9.393e-01,3.428e-01,1.268e-02,-2.524e-02,6001,0,-3.157e+01,-9.036e-02,1.808e-02,0.265,3.764e-02,
2014-09-01 23:10,153,5.153,,-4.497,-2.254,0.228,6.705,5.711e-01,1.187e+00,1.828e-01,1.495e-02,6.805e-03,6000,0,8.515e+00,,,,4.525e-02,
2014-09-01 23:20,168,3.558,0.179,-3.432,-0.755,0.038,6.653,6.056e-01,1.677e-01,6.624e-02,5.381e-03,-7.084e-03,6000,0,-8.866e+00,-3.998e-02,1.727e-02,0.167,1.083e-02,
2014-09-01 23:30,134,2.158,0.217,-1.396,-1.427,0.045,6.683,5.165e-01,2.121e-01,7.525e-02,4.314e-03,-3.031e-03,5999,0,-3.793e+00,-5.857e-02,4.166e-03,0.157,2.278e-02,
2014-09-01 23:40,138,3.255,0.362,-2.358,-2.117,0.109,6.606,1.258e+00,7.844e-01,1.774e-01,9.327e-03,-1.374e-03,6000,0,-1.720e+00,-1.636e-01,4.047e-04,0.359,3.426e-02,
2014-09-01 23:50,144,5.997,0.281,-4.789,-3.516,0.182,6.563,9.513e-01,6.169e-01,2.051e-01,1.105e-02,-9.916e-03,6001,0,-1.241e+01,-9.841e-02,6.266e-03,0.276,3.066e-02,
2014-09-02 00:00,164,3.414,0.208,-3.161,-0.929,0.033,6.491,3.879e-01,7.853e-01,1.527e-01,2.527e-03,-1.253e-03,6000,0,-1.570e+00,-5.389e-02,1.956e-03,0.146,9.921e-03,